Terminal Aerodrome Forecast
Issued by NWS Columbia, SC

Home | Current Version | Previous Version | Text Only | Print | Product List | Glossary On
Versions: 1 2 3 4 5 6 7 8 9 10 11 12 13 14 15 16 17 18 19 20 21 22 23 24 25 26 27 28 29 30 31 32 33 34 35 36 37 38 39 40 41 42 43 44 45 46 47 48 49 50
025
FTUS42 KCAE 281140
TAFAGS
TAF
KAGS 281140Z 2812/2912 00000KT P6SM SCT120
     FM281400 24005KT P6SM SCT035
     FM282000 23008KT P6SM VCSH BKN050 OVC250
     FM290300 18004KT P6SM SCT120
     FM290800 VRB03KT 3SM BR SCT004=

USA.gov is the U.S. government's official web portal to all federal, state and local government web resources and services.